GW3756 Weather Reports


time (UTC)temp
C
wind
direction
speed
KPH
gust
KPH
rain 1hr
cm
rain 24hr
cm
rain mn
cm
humidity
%
barometer
mb
20260503175516 16 265 4.8 17.7 0.00 0.00 0.00 37 1008.8
20260503174525 16 241 8.0 20.9 0.00 0.00 0.00 37 1009.2
20260503173517 16 293 6.4 25.7 0.00 0.00 0.00 38 1009.1
20260503172517 16 270 6.4 24.1 0.00 0.00 0.00 37 1009.2
20260503171516 17 227 4.8 17.7 0.00 0.00 0.00 38 1009.1
20260503170516 16 258 3.2 17.7 0.00 0.00 0.00 38 1009.3
20260503150637 15 251 4.8 14.5 0.00 0.00 0.00 38 1010.2
20260503130515 8 263 4.8 12.9 0.00 0.00 0.00 49 1011.2
20260503110517 2 210 1.6 6.4 0.00 0.00 0.00 66 1012.0
20260503081537 2 0.0 0.0 0.00 0.00 0.00 68 1012.8
20260503080536 2 294 0.0 1.6 0.00 0.00 0.00 66 1012.8
20260503072516 2 294 0.0 4.8 0.00 0.00 0.00 64 1012.7
20260503071516 2 278 0.0 3.2 0.00 0.00 0.00 64 1012.7
20260503070516 3 300 0.0 3.2 0.00 0.00 0.00 63 1012.8
20260503054516 3 268 1.6 6.4 0.00 0.00 0.00 61 1013.2
20260503053515 3 274 1.6 6.4 0.00 0.00 0.00 62 1013.2
20260503052515 3 270 1.6 4.8 0.00 0.00 0.00 64 1013.2
20260503051537 3 285 0.0 3.2 0.00 0.00 0.00 65 1013.4
20260503050521 3 255 0.0 4.8 0.00 0.00 0.00 65 1013.4
20260503045516 3 257 1.6 4.8 0.00 0.00 0.00 65 1013.5
20260503044516 3 260 1.6 6.4 0.00 0.00 0.00 66 1013.6
20260503043517 3 271 0.0 3.2 0.00 0.00 0.00 66 1013.6
20260503042536 3 235 1.6 4.8 0.00 0.00 0.00 66 1013.7
20260503041516 3 288 0.0 4.8 0.00 0.00 0.00 66 1013.9
20260503040515 3 282 0.0 1.6 0.00 0.00 0.00 66 1013.8
20260503035547 3 299 0.0 1.6 0.00 0.00 0.00 66 1013.8
20260503034516 3 292 0.0 1.6 0.00 0.00 0.00 66 1013.9
20260503033516 3 0.0 0.0 0.00 0.00 0.00 65 1014.0
20260503032515 3 295 0.0 1.6 0.00 0.00 0.00 65 1014.0
20260503031517 3 283 0.0 1.6 0.00 0.00 0.00 64 1014.0
20260503030522 4 287 0.0 1.6 0.00 0.00 0.00 62 1014.1
20260503025516 4 279 0.0 3.2 0.00 0.00 0.00 61 1014.2
20260503024535 4 282 0.0 1.6 0.00 0.00 0.00 60 1014.3
20260503023515 5 299 0.0 1.6 0.00 0.00 0.00 60 1014.5
20260503022537 5 258 1.6 6.4 0.00 0.00 0.00 58 1014.5
20260503021516 5 280 0.0 3.2 0.00 0.00 0.00 58 1014.5
20260503020516 5 269 0.0 3.2 0.00 0.00 0.00 59 1014.4
20260503015515 5 261 0.0 1.6 0.00 0.00 0.00 59 1014.5
20260503014517 4 0.0 0.0 0.00 0.00 0.00 61 1014.4
20260503013516 4 0.0 0.0 0.00 0.00 0.00 60 1014.3
20260503012536 5 0.0 0.0 0.00 0.00 0.00 58 1014.4
20260503011524 5 0.0 0.0 0.00 0.00 0.00 58 1014.5
20260503010517 5 0.0 0.0 0.00 0.00 0.00 58 1014.4
20260503005516 5 197 0.0 1.6 0.00 0.00 0.00 55 1014.3
20260503004516 6 0.0 0.0 0.00 0.00 0.00 53 1014.2
20260503003534 6 242 0.0 3.2 0.00 0.00 0.00 53 1014.2
20260503002517 6 261 0.0 3.2 0.00 0.00 0.00 53 1014.2
20260503001537 6 271 0.0 1.6 0.00 0.00 0.00 52 1014.3
20260503000516 7 262 0.0 1.6 0.00 0.00 0.00 50 1014.4
20260502235516 7 302 0.0 1.6 0.00 0.00 0.00 50 1014.4
20260502234515 7 237 1.6 4.8 0.00 0.00 0.00 48 1014.4
20260502233535 7 234 0.0 3.2 0.00 0.00 0.00 49 1014.4
20260502232517 7 357 0.0 1.6 0.00 0.00 0.00 50 1014.5
20260502231516 7 11 0.0 1.6 0.00 0.00 0.00 52 1014.6
20260502230516 7 46 0.0 3.2 0.00 0.00 0.00 54 1014.6
20260502225515 7 5 1.6 4.8 0.00 0.00 0.00 53 1014.7
20260502224515 7 37 1.6 4.8 0.00 0.00 0.00 53 1014.6
20260502223521 7 34 0.0 3.2 0.00 0.00 0.00 54 1014.7
20260502222516 6 20 0.0 3.2 0.00 0.00 0.00 54 1014.8
20260502221530 6 88 1.6 9.7 0.00 0.00 0.00 53 1014.9
20260502220516 6 349 0.0 6.4 0.00 0.00 0.00 53 1015.0
20260502215604 6 357 1.6 9.7 0.00 0.00 0.00 53 1015.1
20260502214517 6 353 0.0 4.8 0.00 0.00 0.00 53 1015.1
20260502213528 6 353 1.6 4.8 0.00 0.00 0.00 54 1015.0
20260502212515 6 347 0.0 4.8 0.00 0.00 0.00 55 1014.9
20260502211517 6 4 0.0 4.8 0.00 0.00 0.00 56 1015.0
20260502210516 6 359 0.0 3.2 0.00 0.00 0.00 57 1015.0
20260502205516 6 50 1.6 4.8 0.00 0.00 0.00 57 1015.0
20260502204534 6 3 1.6 9.7 0.00 0.00 0.00 57 1015.1
20260502203515 6 348 1.6 3.2 0.00 0.00 0.00 59 1015.1
20260502202515 6 1 0.0 3.2 0.00 0.00 0.00 58 1015.2
20260502201517 6 334 0.0 3.2 0.00 0.00 0.00 58 1015.2
20260502200516 6 14 0.0 3.2 0.00 0.00 0.00 58 1015.4
20260502195516 6 23 0.0 4.8 0.00 0.00 0.00 59 1015.5
20260502194515 6 62 1.6 9.7 0.00 0.00 0.00 57 1015.6
20260502193517 6 95 0.0 4.8 0.00 0.00 0.00 57 1015.8
20260502192517 6 97 0.0 4.8 0.00 0.00 0.00 58 1015.9
20260502191516 6 14 0.0 3.2 0.00 0.00 0.00 58 1015.9
20260502190525 6 76 1.6 9.7 0.00 0.00 0.00 58 1015.9
20260502185537 6 30 1.6 4.8 0.00 0.00 0.00 58 1016.0
20260502184517 6 81 3.2 9.7 0.00 0.00 0.00 59 1015.9
20260502183536 6 54 1.6 4.8 0.00 0.00 0.00 58 1016.0
20260502182515 6 16 0.0 3.2 0.00 0.00 0.00 60 1016.1
20260502181517 5 28 1.6 4.8 0.00 0.00 0.00 61 1016.1
20260502180542 5 9 0.0 4.8 0.00 0.00 0.00 62 1016.2